Location: Ferma
(41.9500°N, 44.5167°E)
Time: 18:36:56
(UTC+00:00)

Cosmos 2333 Rocket - Pass Details

Date: 24 October 2021
Orbit: 837 x 865 km, 70.8° (Epoch: 01 December)

Event Time Altitude Azimuth Distance (km) Brightness Sun altitude
Rises 16:37:41 0° 208° (SSW) 3,381 5.6 -28.6°
Reaches altitude 10° 16:40:07 10° 210° (SSW) 2,454 4.8 -29.1°
Enters shadow 16:45:25 72° 265° (W) 892 2.3 -30.1°
